Location: Unspecified
(0.0000°N, 0.0000°E)
Time: 04:28:54
(UTC+00:00)

Envisat - Pass Details

Date: 15 June 2019
Orbit: 764 x 766 km, 98.1° (Epoch: 26 June)

Event Time Altitude Azimuth Distance (km) Brightness Sun altitude
Rises 19:10:12 0° 178° (S) 3,231 6.0 -16.0°
Reaches altitude 10° 19:12:34 10° 184° (S) 2,303 5.3 -16.5°
Maximum altitude 19:17:27 49° 258° (WSW) 978 3.9 -17.6°
Drops below altitude 10° 19:22:19 10° 332° (NNW) 2,293 6.2 -18.7°
Sets 19:24:41 0° 338° (NNW) 3,216 7.0 -19.2°
